Date,TemperatureHighF,TemperatureAvgF,TemperatureLowF,DewpointHighF,DewpointAvgF,DewpointLowF,HumidityHigh,HumidityAvg,HumidityLow,PressureMaxIn,PressureMinIn,WindSpeedMaxMPH,WindSpeedAvgMPH,GustSpeedMaxMPH,PrecipitationSumIn
2013-9-1,92.0,74.9,68.0,99.9,49.6,-36.4,100,48,1,29.17,29.04,8,0,8,0.32
2013-9-2,90.0,76.2,65.0,99.9,50.7,-37.6,100,51,1,29.15,29.05,4,0,4,0.01
2013-9-3,91.0,77.0,69.0,99.9,55.9,-34.6,100,56,1,29.21,29.06,4,0,4,0.02
2013-9-4,90.0,72.8,62.0,71.5,59.9,27.0,100,67,21,29.36,29.20,8,0,8,0.01
2013-9-5,89.0,72.0,60.0,74.0,50.7,-13.0,100,53,5,29.38,29.28,5,0,5,0.00
2013-9-6,85.0,70.3,60.0,67.0,60.7,56.4,100,75,42,29.46,29.34,5,0,5,0.00
2013-9-7,83.0,67.9,55.0,68.0,57.3,12.2,100,72,14,29.42,29.24,5,0,5,0.00
2013-9-8,91.0,72.8,61.0,71.0,55.1,15.8,100,58,17,29.26,29.15,2,0,2,0.00
2013-9-9,92.0,75.0,64.0,74.0,61.0,3.6,100,66,12,29.41,29.26,4,0,4,0.00
2013-9-10,93.0,76.1,65.0,77.4,58.0,-0.3,100,59,7,29.50,29.37,5,0,5,0.00
2013-9-11,92.0,75.4,64.0,74.0,63.8,5.1,100,71,8,29.47,29.32,4,0,4,0.00
2013-9-12,91.0,75.4,66.0,73.8,69.7,61.7,100,85,53,29.33,29.07,7,0,7,0.00
2013-9-13,85.0,72.7,61.0,69.0,62.5,51.7,100,74,41,29.18,29.03,9,1,9,0.00
2013-9-14,80.0,63.8,54.0,57.0,52.6,47.7,100,71,38,29.43,29.18,7,1,7,0.00
2013-9-15,83.0,64.0,48.0,62.6,54.9,29.8,100,76,37,29.51,29.37,5,0,5,0.00
2013-9-16,86.0,71.1,61.0,73.0,62.3,52.2,100,77,45,29.47,29.30,9,1,9,0.00
2013-9-17,79.0,64.3,52.0,61.0,54.5,49.0,100,74,38,29.60,29.46,10,1,10,0.00
2013-9-18,80.0,59.5,47.0,56.0,47.6,30.5,100,70,29,29.60,29.43,4,0,4,0.00
2013-9-19,77.0,62.4,51.0,63.0,57.6,49.6,100,87,54,29.47,29.35,5,0,5,0.00
2013-9-20,70.0,64.6,61.0,70.0,62.8,49.1,100,94,66,29.37,29.23,4,0,4,0.15
2013-9-21,77.0,66.7,63.0,73.2,50.2,25.4,100,59,24,29.24,29.00,5,0,5,0.65
2013-9-22,80.0,66.3,57.0,65.0,47.0,17.1,100,57,18,29.18,29.00,7,1,7,0.12
2013-9-23,76.0,61.2,51.0,58.3,53.9,48.2,100,80,48,29.36,29.18,6,0,6,0.00
2013-9-24,80.0,61.8,50.0,61.9,51.9,33.5,100,72,49,29.38,29.20,4,0,4,0.00
2013-9-25,78.0,61.0,50.0,68.4,50.6,6.2,100,72,16,29.25,29.14,4,0,4,0.00
2013-9-26,79.0,64.2,56.0,65.0,55.6,40.5,100,76,43,29.32,29.16,5,0,5,0.00
2013-9-27,76.0,60.4,51.0,65.8,51.4,25.2,100,75,36,29.47,29.32,6,0,6,0.00
2013-9-28,74.0,58.7,50.0,62.5,47.7,21.5,100,69,29,29.54,29.43,7,0,7,0.00
2013-9-29,78.0,59.8,48.0,64.0,47.9,24.0,100,67,31,29.45,29.29,8,0,8,0.00
2013-9-30,82.0,60.6,48.0,65.1,50.5,25.0,100,73,33,29.37,29.25,5,0,5,0.00